| time (UTC) | temp F | wind direction | speed knots | gust knots | rain 1hr in | rain 24hr in | rain mn in | humidity % | barometer mb |
| 20260506061521 | 54 | 96 | 0.0 | 0.0 | 0.00 | 0.00 | 0.00 | 87 | 1019.1 |
| 20260506044517 | 54 | 107 | 0.9 | 2.6 | 0.00 | 0.00 | 0.00 | 87 | 1019.0 |
| 20260506043015 | 54 | 113 | 0.0 | 1.7 | 0.00 | 0.00 | 0.00 | 88 | 1018.9 |
| 20260506041513 | 54 | 113 | 0.0 | 1.7 | 0.00 | 0.00 | 0.00 | 88 | 1018.7 |
| 20260506040011 | 54 | 99 | 0.9 | 2.6 | 0.00 | 0.00 | 0.00 | 88 | 1018.4 |
| 20260506034511 | 54 | 70 | 0.0 | 3.5 | 0.00 | 0.00 | 0.00 | 87 | 1018.2 |
| 20260506033011 | 54 | 116 | 0.9 | 3.5 | 0.00 | 0.00 | 0.00 | 87 | 1018.0 |
| 20260506031511 | 54 | 127 | 0.9 | 2.6 | 0.00 | 0.00 | 0.00 | 87 | 1018.1 |
| 20260506030008 | 55 | 107 | 1.7 | 3.5 | 0.00 | 0.00 | 0.00 | 87 | 1017.8 |
| 20260506024507 | 55 | 157 | 0.0 | 3.5 | 0.00 | 0.00 | 0.00 | 87 | 1017.6 |
| 20260506023004 | 55 | 129 | 1.7 | 4.3 | 0.00 | 0.00 | 0.00 | 87 | 1017.5 |
| 20260506021503 | 55 | 140 | 0.9 | 5.2 | 0.00 | 0.00 | 0.00 | 87 | 1017.4 |
| 20260506020003 | 55 | 42 | 0.9 | 5.2 | 0.00 | 0.00 | 0.00 | 87 | 1017.4 |
| 20260506014504 | 55 | 72 | 1.7 | 5.2 | 0.00 | 0.00 | 0.00 | 86 | 1017.3 |
| 20260506013002 | 55 | 77 | 1.7 | 5.2 | 0.00 | 0.00 | 0.00 | 86 | 1017.3 |
| 20260506011507 | 56 | 86 | 1.7 | 6.1 | 0.00 | 0.00 | 0.00 | 86 | 1017.2 |
| 20260506010001 | 56 | 123 | 1.7 | 5.2 | 0.00 | 0.00 | 0.00 | 86 | 1017.1 |
| 20260506004503 | 56 | 143 | 1.7 | 4.3 | 0.00 | 0.00 | 0.00 | 85 | 1017.1 |
| 20260506003128 | 57 | 108 | 1.7 | 6.1 | 0.00 | 0.00 | 0.00 | 85 | 1017.0 |
| 20260506001609 | 57 | 125 | 1.7 | 5.2 | 0.00 | 0.00 | 0.00 | 85 | 1017.1 |
| 20260506000059 | 57 | 127 | 2.6 | 6.1 | 0.00 | 0.00 | 0.00 | 85 | 1017.2 |
| 20260505234559 | 57 | 122 | 2.6 | 7.8 | 0.00 | 0.00 | 0.00 | 85 | 1017.2 |
| 20260505233111 | 57 | 128 | 2.6 | 7.8 | 0.00 | 0.00 | 0.00 | 85 | 1017.3 |
| 20260505231557 | 58 | 144 | 3.5 | 7.0 | 0.00 | 0.00 | 0.00 | 84 | 1017.4 |
| 20260505230059 | 58 | 127 | 2.6 | 7.0 | 0.00 | 0.00 | 0.00 | 84 | 1017.4 |
| 20260505224556 | 58 | 127 | 3.5 | 7.0 | 0.00 | 0.00 | 0.00 | 84 | 1017.3 |
| 20260505223056 | 58 | 134 | 3.5 | 8.7 | 0.00 | 0.00 | 0.00 | 82 | 1017.3 |
| 20260505221555 | 59 | 105 | 2.6 | 7.8 | 0.00 | 0.00 | 0.00 | 83 | 1017.4 |
| 20260505220053 | 59 | 94 | 3.5 | 7.8 | 0.00 | 0.00 | 0.00 | 82 | 1017.4 |
| 20260505214609 | 59 | 127 | 3.5 | 9.6 | 0.00 | 0.00 | 0.00 | 81 | 1017.2 |
| 20260505213052 | 60 | 96 | 4.3 | 7.8 | 0.00 | 0.00 | 0.00 | 79 | 1017.2 |
| 20260505211550 | 61 | 162 | 1.7 | 7.0 | 0.00 | 0.00 | 0.00 | 79 | 1017.2 |
| 20260505210049 | 60 | 158 | 1.7 | 7.0 | 0.00 | 0.00 | 0.00 | 78 | 1017.1 |
| 20260505204549 | 60 | 110 | 2.6 | 9.6 | 0.00 | 0.00 | 0.00 | 78 | 1017.0 |
| 20260505203048 | 61 | 165 | 2.6 | 8.7 | 0.00 | 0.00 | 0.00 | 77 | 1017.1 |
| 20260505201552 | 61 | 144 | 2.6 | 8.7 | 0.00 | 0.00 | 0.00 | 76 | 1017.2 |
| 20260505200047 | 61 | 45 | 2.6 | 7.0 | 0.00 | 0.00 | 0.00 | 76 | 1017.3 |
| 20260505194546 | 61 | 129 | 1.7 | 5.2 | 0.00 | 0.00 | 0.00 | 76 | 1017.2 |
| 20260505193046 | 61 | 113 | 1.7 | 5.2 | 0.00 | 0.00 | 0.00 | 75 | 1017.2 |
| 20260505191555 | 61 | 105 | 1.7 | 4.3 | 0.00 | 0.00 | 0.00 | 76 | 1017.3 |
| 20260505190041 | 60 | 99 | 0.9 | 6.1 | 0.00 | 0.00 | 0.00 | 77 | 1017.2 |
| 20260505184544 | 60 | 87 | 1.7 | 4.3 | 0.00 | 0.00 | 0.00 | 78 | 1017.2 |
| 20260505183059 | 59 | 127 | 1.7 | 5.2 | 0.00 | 0.00 | 0.00 | 79 | 1017.2 |
| 20260505181537 | 59 | 61 | 1.7 | 5.2 | 0.00 | 0.00 | 0.00 | 79 | 1017.2 |
| 20260505180037 | 59 | 127 | 0.9 | 5.2 | 0.00 | 0.00 | 0.00 | 80 | 1017.2 |
| 20260505174534 | 58 | 143 | 1.7 | 5.2 | 0.00 | 0.00 | 0.00 | 79 | 1017.1 |
| 20260505173041 | 58 | 122 | 2.6 | 5.2 | 0.00 | 0.00 | 0.00 | 79 | 1016.9 |
| 20260505171542 | 58 | 107 | 2.6 | 5.2 | 0.00 | 0.00 | 0.00 | 79 | 1016.8 |
| 20260505170031 | 59 | 61 | 0.9 | 3.5 | 0.00 | 0.00 | 0.00 | 79 | 1016.8 |
| 20260505164529 | 58 | 131 | 1.7 | 3.5 | 0.00 | 0.00 | 0.00 | 78 | 1016.8 |
| 20260505163027 | 58 | 116 | 0.9 | 2.6 | 0.00 | 0.00 | 0.00 | 79 | 1016.7 |
| 20260505161526 | 58 | 143 | 0.0 | 2.6 | 0.00 | 0.00 | 0.00 | 80 | 1016.7 |
| 20260505153017 | 55 | 302 | 0.0 | 0.0 | 0.00 | 0.00 | 0.00 | 88 | 1016.6 |
| 20260505151520 | 54 | 266 | 0.0 | 0.0 | 0.00 | 0.00 | 0.00 | 89 | 1016.4 |
| 20260505124511 | 53 | 266 | 0.0 | 0.0 | 0.00 | 0.00 | 0.00 | 90 | 1016.0 |
| 20260505123010 | 53 | 266 | 0.0 | 0.0 | 0.00 | 0.00 | 0.00 | 90 | 1015.8 |
| 20260505121510 | 53 | 266 | 0.0 | 0.0 | 0.00 | 0.00 | 0.00 | 90 | 1015.7 |
| 20260505120028 | 53 | 266 | 0.0 | 0.0 | 0.00 | 0.00 | 0.00 | 90 | 1015.7 |
| 20260505114510 | 53 | 266 | 0.0 | 0.0 | 0.00 | 0.00 | 0.00 | 90 | 1015.6 |
| 20260505113007 | 53 | 266 | 0.0 | 0.0 | 0.00 | 0.00 | 0.00 | 90 | 1015.5 |
| 20260505111506 | 53 | 266 | 0.0 | 0.0 | 0.00 | 0.00 | 0.00 | 90 | 1015.6 |
| 20260505101603 | 54 | 266 | 0.0 | 0.0 | 0.00 | 0.00 | 0.00 | 90 | 1015.5 |
| 20260505100059 | 54 | 266 | 0.0 | 0.0 | 0.00 | 0.00 | 0.00 | 90 | 1015.6 |
| 20260505094558 | 54 | 266 | 0.0 | 0.0 | 0.00 | 0.00 | 0.00 | 90 | 1015.7 |
| 20260505093058 | 54 | 266 | 0.0 | 0.0 | 0.00 | 0.00 | 0.00 | 89 | 1015.9 |
| 20260505091601 | 54 | 266 | 0.0 | 0.0 | 0.00 | 0.00 | 0.00 | 89 | 1015.9 |
| 20260505090053 | 54 | 266 | 0.0 | 0.0 | 0.00 | 0.00 | 0.00 | 89 | 1016.1 |
| 20260505084551 | 54 | 266 | 0.0 | 0.9 | 0.00 | 0.00 | 0.00 | 89 | 1016.3 |
| 20260505083050 | 54 | 266 | 0.0 | 0.9 | 0.00 | 0.00 | 0.00 | 89 | 1016.3 |
| 20260505081548 | 54 | 266 | 0.0 | 0.9 | 0.00 | 0.00 | 0.00 | 89 | 1016.3 |
| 20260505080046 | 55 | 266 | 0.0 | 0.9 | 0.00 | 0.00 | 0.00 | 89 | 1016.4 |
| 20260505074549 | 55 | 266 | 0.0 | 0.9 | 0.00 | 0.00 | 0.00 | 89 | 1016.4 |
| 20260505073101 | 55 | 266 | 0.0 | 0.9 | 0.00 | 0.00 | 0.00 | 88 | 1016.4 |
| 20260505071541 | 55 | 266 | 0.0 | 0.9 | 0.00 | 0.00 | 0.00 | 88 | 1016.3 |